|
NORAD ID: 24303 Int'l Code: 1996-051G
Perigee: 823.8 km
Apogee: 923.6 km
Inclination: 71.1 °
Period: 102.3 minutes
Semi major axis: 7244 km
Launch date: September 4, 1996
Source: Commonwealth of Independent States (former USSR) (CIS)
Note: This is SATELLITE DEBRIS
Two Line Element Set (TLE):
1 24303U 96051G 13137.53611084 .00000187 00000-0 13415-3 0 4208
2 24303 071.1063 180.1663 0068832 062.7712 082.6768 14.07904016858278
Source:
NASA's NSSDC Master Catalog entry for SL-16 DEB
|